Volver al catálogo

STARLINK-1542

ActivoComunicacionesVLEO
NORAD 46073·PAYLOAD·🇺🇸 United States

Lanzado Aug 7, 2020 desde Cape Canaveral Space Force Station

Loading…

Próximos Pases (próximas 24 horas)

TLE

ActualizadoSource: CelesTrak SupGP

Época: Sep 15, 2026, 02:24 UTC

1 46073C 20055AY  26258.10048611  .00033852  00000+0  10881-2 0  2584
2 46073  53.1570 303.2605 0001189  91.3042 326.0199 15.31700443    19

Sigue STARLINK-1542 en tiempo real con AllMySat

Download on the App Store